KUIPER-00157

导读 | 豆包AI

KUIPER-00157是美国亚马逊公司柯伊伯(Project Kuiper)低轨互联网星座的组网卫星,于2025年10月14日发射入轨。该星座计划部署3236颗卫星,运行于近地轨道,旨在为全球提供高速、低延迟的天基宽带互联网服务。作为星座组网阶段的卫星之一,KUIPER-00157采用改进技术,将助力亚马逊完成全球卫星互联网覆盖目标,参与低轨星座市场竞争。

基本信息
目录编号:
65970
目录名称:
KUIPER-00157
国际标识:
2025-228Z
轨道中心:
EARTH
卫星名称:
KUIPER-00157
卫星全名:
KUIPER-00157
卫星状态:
在轨 (已飞行140 天)
发射日期:
2025-10-14 UTC
国别 :
美国 (US)
星等 :
--
轨道信息
数据来源 国际轨道数据
星历时间: 2026-03-02T14:59:27+0800
21小时前
查看轨道信息
半长轴: 7007.665km
偏心率: 0.000062
轨道倾角: 51.903°
近地点辐角 46.680°
升交点赤经 10.930°
平近点角 313.422°
近地点: 629.093km
远地点: 629.963km
周期: 97.302分钟
每日圈数: 14.799357
详细信息
使用方式:
暂无
2D轨道图
3D轨道图
轨道高度分析图
轨道倾角分析图
轨道综合分析图
查看轨道综合分析图